When you browse on this site, cookies collect data to enhance your experience and personalize the content and advertising you see.
Visit our Privacy Policy to learn more. By continuing to use the site, you agree to this use of cookies and data.
  • In Österreich
  • Länderverzeichnis
  • Für 7 Tage
  • Wassertemperatur
  • Satellitenkarten
  • Wetterkarte
  • News
  • Widgets
  • user-avatar
    Anmelden

    Stündliche Wetter San Miguel de Tucumán

    Heute, 26 Mai, Sonntag

    Zeit Temperatur Niederschläge Wind Luftdruck Luftfeuchtigkeit
    00:00 +13°C° 0 mm 1 m/S 715 mmHg 78%
    01:00 +12°C° 0 mm 1 m/S 715 mmHg 78%
    02:00 +12°C° 0 mm 1 m/S 715 mmHg 78%
    03:00 +12°C° 0 mm 1 m/S 715 mmHg 78%
    04:00 +12°C° 0 mm 1 m/S 715 mmHg 78%
    05:00 +12°C° 0 mm 1 m/S 715 mmHg 78%
    06:00 +12°C° 0 mm 1 m/S 715 mmHg 77%
    07:00 +13°C° 0 mm 1 m/S 715 mmHg 77%
    08:00 +13°C° 0 mm 1 m/S 716 mmHg 77%
    09:00 +14°C° 0 mm 1 m/S 716 mmHg 73%
    10:00 +16°C° 0 mm 1 m/S 716 mmHg 69%
    11:00 +18°C° 0 mm 2 m/S 716 mmHg 66%
    12:00 +18°C° 0 mm 2 m/S 716 mmHg 63%
    13:00 +19°C° 0 mm 2 m/S 716 mmHg 61%
    14:00 +20°C° 0 mm 2 m/S 715 mmHg 58%
    15:00 +20°C° 0 mm 1 m/S 715 mmHg 63%
    16:00 +19°C° 0 mm 1 m/S 715 mmHg 68%
    17:00 +18°C° 0 mm 1 m/S 715 mmHg 73%
    18:00 +16°C° 0 mm 1 m/S 716 mmHg 74%
    19:00 +15°C° 0 mm 1 m/S 716 mmHg 75%
    20:00 +14°C° 0 mm 1 m/S 717 mmHg 76%
    21:00 +13°C° 0 mm 1 m/S 717 mmHg 75%
    22:00 +13°C° 0 mm 1 m/S 717 mmHg 75%
    23:00 +13°C° 0 mm 1 m/S 718 mmHg 75%

    Morgen, 27 Mai, Montag

    Zeit Temperatur Niederschläge Wind Luftdruck Luftfeuchtigkeit
    00:00 +13°C° 0 mm 1 m/S 717 mmHg 77%
    01:00 +13°C° 0 mm 1 m/S 717 mmHg 78%
    02:00 +13°C° 0 mm 1 m/S 717 mmHg 80%
    03:00 +12°C° 0 mm 1 m/S 717 mmHg 82%
    04:00 +12°C° 0 mm 1 m/S 717 mmHg 84%
    05:00 +12°C° 0 mm 1 m/S 717 mmHg 86%
    06:00 +13°C° 0 mm 1 m/S 717 mmHg 86%
    07:00 +13°C° 0 mm 1 m/S 718 mmHg 86%
    08:00 +13°C° 0 mm 1 m/S 718 mmHg 86%
    09:00 +14°C° 0 mm 1 m/S 718 mmHg 85%
    10:00 +15°C° 0 mm 1 m/S 718 mmHg 84%
    11:00 +16°C° 0 mm 1 m/S 718 mmHg 84%
    12:00 +18°C° 0 mm 1 m/S 718 mmHg 83%
    13:00 +18°C° 0 mm 1 m/S 717 mmHg 83%
    14:00 +18°C° 0 mm 1 m/S 716 mmHg 82%
    15:00 +18°C° 0 mm 1 m/S 716 mmHg 84%
    16:00 +18°C° 0 mm 1 m/S 716 mmHg 86%
    17:00 +18°C° 0 mm 1 m/S 716 mmHg 88%
    18:00 +16°C° 0 mm 1 m/S 716 mmHg 90%
    19:00 +15°C° 0 mm 1 m/S 717 mmHg 92%
    20:00 +15°C° 0 mm 1 m/S 718 mmHg 94%
    21:00 +15°C° 0 mm 1 m/S 718 mmHg 93%
    22:00 +15°C° 0 mm 1 m/S 718 mmHg 92%
    23:00 +15°C° 0 mm 1 m/S 718 mmHg 91%

    übermorgen, 28 Mai, Dienstag

    Zeit Temperatur Niederschläge Wind Luftdruck Luftfeuchtigkeit
    00:00 +15°C° 0 mm 1 m/S 718 mmHg 91%
    01:00 +15°C° 0 mm 1 m/S 718 mmHg 91%
    02:00 +15°C° 0 mm 1 m/S 718 mmHg 90%
    03:00 +15°C° 0 mm 1 m/S 718 mmHg 90%
    04:00 +14°C° 0 mm 1 m/S 717 mmHg 89%
    05:00 +14°C° 0 mm 1 m/S 717 mmHg 89%
    06:00 +15°C° 0 mm 1 m/S 718 mmHg 87%
    07:00 +15°C° 0 mm 1 m/S 718 mmHg 86%
    08:00 +15°C° 0 mm 1 m/S 719 mmHg 85%
    09:00 +16°C° 0 mm 1 m/S 719 mmHg 81%
    10:00 +19°C° 0 mm 1 m/S 719 mmHg 77%
    11:00 +19°C° 0 mm 2 m/S 719 mmHg 74%
    12:00 +19°C° 0 mm 2 m/S 718 mmHg 74%
    13:00 +20°C° 0 mm 2 m/S 717 mmHg 73%
    14:00 +20°C° 0 mm 2 m/S 717 mmHg 73%
    15:00 +19°C° 0 mm 2 m/S 716 mmHg 78%
    16:00 +18°C° 0 mm 2 m/S 716 mmHg 84%
    17:00 +19°C° 0 mm 1 m/S 716 mmHg 89%
    18:00 +18°C° 0 mm 1 m/S 717 mmHg 90%
    19:00 +18°C° 0 mm 1 m/S 717 mmHg 92%
    20:00 +16°C° 0 mm 1 m/S 718 mmHg 94%
    21:00 +16°C° 0 mm 1 m/S 718 mmHg 94%
    22:00 +16°C° 0 mm 1 m/S 718 mmHg 94%
    23:00 +16°C° 0 mm 1 m/S 718 mmHg 93%

    29 Mai, Mittwoch

    Zeit Temperatur Niederschläge Wind Luftdruck Luftfeuchtigkeit
    00:00 +16°C° 0 mm 1 m/S 718 mmHg 93%
    01:00 +16°C° 0 mm 1 m/S 718 mmHg 93%
    02:00 +15°C° 0 mm 1 m/S 717 mmHg 93%
    03:00 +15°C° 0 mm 1 m/S 717 mmHg 92%
    04:00 +15°C° 0 mm 1 m/S 717 mmHg 91%
    05:00 +15°C° 0 mm 1 m/S 717 mmHg 91%
    06:00 +15°C° 0 mm 1 m/S 717 mmHg 89%
    07:00 +16°C° 0 mm 1 m/S 717 mmHg 88%
    08:00 +16°C° 0 mm 1 m/S 718 mmHg 86%
    09:00 +17°C° 0 mm 2 m/S 718 mmHg 83%
    10:00 +19°C° 0 mm 2 m/S 717 mmHg 79%
    11:00 +20°C° 0 mm 3 m/S 717 mmHg 75%
    12:00 +20°C° 0 mm 3 m/S 716 mmHg 76%
    13:00 +20°C° 0 mm 3 m/S 716 mmHg 77%
    14:00 +20°C° 0 mm 3 m/S 715 mmHg 77%
    15:00 +19°C° 0.1 mm 2 m/S 715 mmHg 81%
    16:00 +19°C° 0.1 mm 2 m/S 715 mmHg 85%
    17:00 +18°C° 0.1 mm 2 m/S 714 mmHg 89%
    18:00 +18°C° 0.1 mm 1 m/S 715 mmHg 91%
    19:00 +18°C° 0.1 mm 1 m/S 716 mmHg 93%
    20:00 +16°C° 0.1 mm 1 m/S 717 mmHg 95%
    21:00 +16°C° 0.1 mm 1 m/S 717 mmHg 95%
    22:00 +16°C° 0.1 mm 1 m/S 718 mmHg 95%
    23:00 +16°C° 0.1 mm 1 m/S 718 mmHg 95%

    30 Mai, Donnerstag

    Zeit Temperatur Niederschläge Wind Luftdruck Luftfeuchtigkeit
    00:00 +16°C° 0.1 mm 1 m/S 718 mmHg 94%
    01:00 +16°C° 0.1 mm 1 m/S 718 mmHg 94%
    02:00 +16°C° 0.1 mm 1 m/S 717 mmHg 94%
    03:00 +16°C° 0 mm 1 m/S 717 mmHg 93%
    04:00 +15°C° 0 mm 1 m/S 718 mmHg 92%
    05:00 +15°C° 0 mm 1 m/S 718 mmHg 90%
    06:00 +15°C° 0 mm 1 m/S 718 mmHg 89%
    07:00 +16°C° 0 mm 1 m/S 719 mmHg 88%
    08:00 +16°C° 0 mm 1 m/S 719 mmHg 87%
    09:00 +18°C° 0 mm 1 m/S 719 mmHg 85%
    10:00 +19°C° 0 mm 1 m/S 719 mmHg 83%
    11:00 +18°C° 0 mm 2 m/S 720 mmHg 81%
    12:00 +19°C° 0 mm 2 m/S 719 mmHg 80%
    13:00 +19°C° 0 mm 2 m/S 718 mmHg 80%
    14:00 +19°C° 0 mm 2 m/S 717 mmHg 80%
    15:00 +18°C° 0.1 mm 2 m/S 717 mmHg 84%
    16:00 +19°C° 0.1 mm 1 m/S 717 mmHg 88%
    17:00 +18°C° 0.1 mm 1 m/S 717 mmHg 92%
    18:00 +18°C° 0.1 mm 1 m/S 717 mmHg 92%
    19:00 +16°C° 0.1 mm 1 m/S 718 mmHg 93%
    20:00 +15°C° 0.1 mm 0 m/S 718 mmHg 94%
    21:00 +16°C° 0.1 mm 1 m/S 718 mmHg 93%
    22:00 +16°C° 0.1 mm 1 m/S 718 mmHg 93%
    23:00 +16°C° 0.1 mm 1 m/S 718 mmHg 92%

    31 Mai, Freitag

    Zeit Temperatur Niederschläge Wind Luftdruck Luftfeuchtigkeit
    00:00 +15°C° 0.1 mm 1 m/S 717 mmHg 93%
    01:00 +15°C° 0.1 mm 2 m/S 717 mmHg 93%
    02:00 +15°C° 0.1 mm 2 m/S 716 mmHg 93%
    03:00 +15°C° 0.1 mm 2 m/S 716 mmHg 93%
    04:00 +15°C° 0.1 mm 2 m/S 715 mmHg 93%
    05:00 +15°C° 0.1 mm 2 m/S 715 mmHg 92%
    06:00 +15°C° 0.1 mm 2 m/S 715 mmHg 92%
    07:00 +15°C° 0.1 mm 2 m/S 715 mmHg 91%
    08:00 +15°C° 0.1 mm 2 m/S 716 mmHg 90%
    09:00 +15°C° 0 mm 2 m/S 715 mmHg 89%
    10:00 +16°C° 0 mm 2 m/S 715 mmHg 87%
    11:00 +17°C° 0 mm 3 m/S 715 mmHg 85%
    12:00 +17°C° 0 mm 3 m/S 714 mmHg 85%
    13:00 +17°C° 0 mm 3 m/S 713 mmHg 84%
    14:00 +17°C° 0 mm 2 m/S 712 mmHg 84%
    15:00 +16°C° 0 mm 2 m/S 712 mmHg 86%
    16:00 +16°C° 0 mm 2 m/S 712 mmHg 88%
    17:00 +16°C° 0 mm 2 m/S 712 mmHg 90%
    18:00 +15°C° 0 mm 1 m/S 713 mmHg 91%
    19:00 +15°C° 0 mm 1 m/S 714 mmHg 91%
    20:00 +15°C° 0 mm 1 m/S 714 mmHg 92%
    21:00 +14°C° 0 mm 1 m/S 715 mmHg 91%
    22:00 +14°C° 0 mm 1 m/S 715 mmHg 90%
    23:00 +14°C° 0 mm 1 m/S 715 mmHg 89%
    Mehr zeigen